Location: Musselshell
(46.5176°N, 108.0911°W)
Time: 04:56:41
(UTC+00:00)

SEEDS - Pass Details

Date: 04 July 2022
Orbit: 579 x 598 km, 97.6° (Epoch: 09 August)

Event Time Altitude Azimuth Distance (km) Brightness Sun altitude
Rises 10:10:17 0° 33° (NNE) 2,811 ? -10.3°
Reaches altitude 10° 10:13:51 10° 66° (ENE) 1,902 ? -9.9°
Maximum altitude 10:15:23 12° 88° (E) 1,781 ? -9.8°
Drops below altitude 10° 10:16:56 10° 110° (ESE) 1,895 ? -9.6°
Sets 10:20:27 0° 143° (SE) 2,787 ? -9.2°
